Regional Weather Roundup
Issued by NWS

Home | Current Version | Previous Version | Graphics & Text | Print | Product List | Glossary On
Versions: 1 2 3 4 5 6 7 8 9 10 11 12 13 14 15 16 17 18 19 20 21 22 23 24 25 26 27 28 29 30 31 32 33 34 35 36 37 38 39 40 41 42 43 44 45 46 47 48 49 50
000
ASUS45 KCYS 061110
RWRWY

WYOMING REGIONAL WEATHER ROUNDUP
NATIONAL WEATHER SERVICE CHEYENNE WY
500 AM MDT MON JUL 06 2015

NOTE:  "FAIR" INDICATES FEW OR NO CLOUDS BELOW 12,000 FEET
WITH NO SIGNIFICANT WEATHER AND/OR OBSTRUCTIONS TO VISIBILITY.

WYZ001-061200-
YELLOWSTONE NATIONAL PARK

CITY           SKY/WX    TMP DP  RH WIND       PRES   REMARKS
LK YELLOWSTONE   N/A     45  44  97 CALM      30.37S
W YELLOWSTONE  NOT AVBL

$$
WYZ002>013-054>058-071-098>099-061200-
NORTHERN WYOMING

CITY           SKY/WX    TMP DP  RH WIND       PRES   REMARKS
JACKSON        MOCLDY    54  52  94 CALM      30.27F
CODY           CLOUDY    52  48  87 NE7       30.28R
GREYBULL       FAIR      55  51  86 NW10      30.21R
WORLAND        FAIR      56  53  90 NW3       30.22R FOG
SHERIDAN       CLOUDY    54  51  90 NE3       30.25R
BUFFALO        CLOUDY    53  51  93 N7        30.27R FOG
GILLETTE       CLOUDY    54  50  86 N8        30.23R
HULETT         CLOUDY    54  52  94 NE3       30.23S FOG
NEWCASTLE      PTSUNNY   57  48  72 N6        30.19S HAZE

$$
WYZ014>020-022>026-101>103-061200-
CENTRAL WYOMING

CITY           SKY/WX    TMP DP  RH WIND       PRES   REMARKS
BIG PINEY      CLOUDY    55  49  80 NW5       30.30R
PINEDALE       CLOUDY    52  50  93 W5        30.29S
DUBOIS         PTSUNNY   50  45  81 NW6       30.30S
LANDER         CLOUDY    55  54  96 SW7       30.26R
RIVERTON       LGT RAIN  55  52  89 CALM      30.26R
CASPER         CLOUDY    54  51  90 NE7       30.24S FOG
DOUGLAS        CLOUDY    54  53  97 NW5       30.23R FOG

$$
WYZ021-027>030-104>119-061200-
SOUTHERN WYOMING

CITY           SKY/WX    TMP DP  RH WIND       PRES   REMARKS
EVANSTON       FAIR      52  50  93 E12       30.27R
KEMMERER       FAIR      52  48  87 N10       30.29S
FORT BRIDGER   CLOUDY    55  55 100 NE3       30.30R
ROCK SPRINGS   MOCLDY    56  53  90 NE9       30.28R
DIXON          CLOUDY    54  52  94 SE5       30.28R
RAWLINS        LGT RAIN  54  52  93 NE3       30.27R
SARATOGA       CLOUDY    55  54  94 CALM      30.27S
LARAMIE        LGT RAIN  56  53  90 N14       30.25R
CHEYENNE       CLOUDY    55  54  96 N9        30.22R FOG
TORRINGTON     LGT RAIN  59  58  96 N8        30.15R FOG
PINE BLUFFS    LGT RAIN  55  55 100 N9        30.19R

$$



USA.gov is the U.S. government's official web portal to all federal, state and local government web resources and services.